• In Deutschland
  • Länderverzeichnis
  • Für 7 Tage
  • Wassertemperatur
  • Satellitenkarten
  • Wetterkarte
  • Widgets
  • user-avatar
    Anmelden

    Stündliche Wetter Bridel

    Heute, 23 Januar, Dienstag

    Zeit Temperatur Niederschläge Wind Luftdruck Luftfeuchtigkeit
    00:00 +3°C° 0 mm 3 m/S 735 mmHg 93%
    01:00 +3°C° 0 mm 3 m/S 735 mmHg 93%
    02:00 +4°C° 0 mm 2 m/S 735 mmHg 93%
    03:00 +4°C° 0 mm 2 m/S 736 mmHg 93%
    04:00 +4°C° 0 mm 2 m/S 736 mmHg 93%
    05:00 +4°C° 0 mm 2 m/S 736 mmHg 93%
    06:00 +3°C° 0 mm 3 m/S 736 mmHg 94%
    07:00 +3°C° 0 mm 3 m/S 736 mmHg 93%
    08:00 +4°C° 0 mm 3 m/S 737 mmHg 93%
    09:00 +4°C° 0 mm 3 m/S 737 mmHg 93%
    10:00 +5°C° 0 mm 4 m/S 737 mmHg 89%
    11:00 +5°C° 0 mm 5 m/S 737 mmHg 85%
    12:00 +6°C° 0 mm 5 m/S 737 mmHg 82%
    13:00 +6°C° 0,2 mm 5 m/S 737 mmHg 84%
    14:00 +6°C° 0,2 mm 5 m/S 737 mmHg 86%
    15:00 +5°C° 0,2 mm 5 m/S 736 mmHg 89%
    16:00 +5°C° 0,1 mm 5 m/S 736 mmHg 90%
    17:00 +5°C° 0,1 mm 5 m/S 736 mmHg 91%
    18:00 +6°C° 0,1 mm 5 m/S 736 mmHg 93%
    19:00 +6°C° 0,2 mm 5 m/S 736 mmHg 93%
    20:00 +6°C° 0,2 mm 5 m/S 736 mmHg 94%
    21:00 +6°C° 0,2 mm 5 m/S 736 mmHg 95%
    22:00 +7°C° 0,2 mm 5 m/S 736 mmHg 95%
    23:00 +7°C° 0,2 mm 5 m/S 736 mmHg 96%

    Morgen, 24 Januar, Mittwoch

    Zeit Temperatur Niederschläge Wind Luftdruck Luftfeuchtigkeit
    00:00 +7°C° 0,2 mm 5 m/S 736 mmHg 96%
    01:00 +7°C° 0,1 mm 5 m/S 736 mmHg 96%
    02:00 +7°C° 0,1 mm 5 m/S 736 mmHg 96%
    03:00 +8°C° 0,1 mm 5 m/S 736 mmHg 96%
    04:00 +8°C° 0,1 mm 5 m/S 736 mmHg 96%
    05:00 +8°C° 0,1 mm 5 m/S 735 mmHg 96%
    06:00 +8°C° 0,1 mm 5 m/S 735 mmHg 96%
    07:00 +8°C° 0,1 mm 5 m/S 735 mmHg 95%
    08:00 +8°C° 0,1 mm 5 m/S 735 mmHg 95%
    09:00 +8°C° 0,1 mm 6 m/S 735 mmHg 95%
    10:00 +8°C° 0,1 mm 6 m/S 734 mmHg 93%
    11:00 +8°C° 0,1 mm 6 m/S 734 mmHg 91%
    12:00 +9°C° 0,1 mm 7 m/S 733 mmHg 89%
    13:00 +9°C° 0 mm 7 m/S 733 mmHg 87%
    14:00 +9°C° 0 mm 6 m/S 732 mmHg 86%
    15:00 +9°C° 0 mm 6 m/S 732 mmHg 84%
    16:00 +9°C° 0 mm 6 m/S 732 mmHg 85%
    17:00 +8°C° 0 mm 6 m/S 731 mmHg 86%
    18:00 +8°C° 0 mm 6 m/S 731 mmHg 87%
    19:00 +8°C° 0 mm 6 m/S 731 mmHg 87%
    20:00 +8°C° 0 mm 6 m/S 730 mmHg 87%
    21:00 +8°C° 0 mm 6 m/S 730 mmHg 86%
    22:00 +8°C° 0 mm 6 m/S 730 mmHg 87%
    23:00 +7°C° 0 mm 6 m/S 730 mmHg 87%

    übermorgen, 25 Januar, Donnerstag

    Zeit Temperatur Niederschläge Wind Luftdruck Luftfeuchtigkeit
    00:00 +6°C° 0 mm 7 m/S 730 mmHg 87%
    01:00 +6°C° 0,2 mm 7 m/S 729 mmHg 87%
    02:00 +8°C° 0,2 mm 7 m/S 729 mmHg 87%
    03:00 +8°C° 0,2 mm 7 m/S 729 mmHg 88%
    04:00 +6°C° 1 mm 7 m/S 728 mmHg 88%
    05:00 +6°C° 1 mm 7 m/S 728 mmHg 89%
    06:00 +7°C° 1 mm 6 m/S 728 mmHg 89%
    07:00 +6°C° 0,9 mm 5 m/S 728 mmHg 90%
    08:00 +6°C° 0,9 mm 5 m/S 728 mmHg 91%
    09:00 +6°C° 0,9 mm 4 m/S 729 mmHg 92%
    10:00 +7°C° 0,6 mm 3 m/S 729 mmHg 91%
    11:00 +5°C° 0,6 mm 3 m/S 728 mmHg 91%
    12:00 +5°C° 0,6 mm 3 m/S 728 mmHg 90%
    13:00 +5°C° 0,6 mm 3 m/S 728 mmHg 90%
    14:00 +5°C° 0,6 mm 3 m/S 728 mmHg 90%
    15:00 +5°C° 0,6 mm 3 m/S 728 mmHg 89%
    16:00 +4°C° 0,1 mm 3 m/S 729 mmHg 91%
    17:00 +4°C° 0,1 mm 3 m/S 729 mmHg 92%
    18:00 +4°C° 0,1 mm 3 m/S 729 mmHg 93%
    19:00 +4°C° 0,1 mm 3 m/S 729 mmHg 94%
    20:00 +5°C° 0,1 mm 2 m/S 729 mmHg 94%
    21:00 +4°C° 0,1 mm 2 m/S 730 mmHg 95%
    22:00 +4°C° 0,1 mm 2 m/S 730 mmHg 95%
    23:00 +4°C° 0,1 mm 2 m/S 730 mmHg 96%

    26 Januar, Freitag

    Zeit Temperatur Niederschläge Wind Luftdruck Luftfeuchtigkeit
    00:00 +4°C° 0,1 mm 2 m/S 730 mmHg 96%
    01:00 +4°C° 0 mm 2 m/S 730 mmHg 96%
    02:00 +4°C° 0 mm 2 m/S 730 mmHg 96%
    03:00 +3°C° 0 mm 2 m/S 730 mmHg 97%
    04:00 +3°C° 0 mm 2 m/S 730 mmHg 97%
    05:00 +3°C° 0 mm 2 m/S 730 mmHg 97%
    06:00 +3°C° 0 mm 2 m/S 730 mmHg 97%
    07:00 +3°C° 0 mm 2 m/S 731 mmHg 95%
    08:00 +3°C° 0 mm 2 m/S 731 mmHg 94%
    09:00 +3°C° 0 mm 2 m/S 731 mmHg 93%
    10:00 +4°C° 0 mm 2 m/S 732 mmHg 89%
    11:00 +3°C° 0 mm 3 m/S 732 mmHg 86%
    12:00 +4°C° 0 mm 3 m/S 732 mmHg 83%
    13:00 +4°C° 0 mm 3 m/S 732 mmHg 83%
    14:00 +4°C° 0 mm 3 m/S 733 mmHg 83%
    15:00 +5°C° 0 mm 2 m/S 733 mmHg 83%
    16:00 +4°C° 0 mm 2 m/S 733 mmHg 86%
    17:00 +4°C° 0 mm 2 m/S 734 mmHg 89%
    18:00 +3°C° 0 mm 2 m/S 734 mmHg 92%
    19:00 +3°C° 0 mm 2 m/S 735 mmHg 93%
    20:00 +2°C° 0 mm 2 m/S 735 mmHg 93%
    21:00 +2°C° 0 mm 2 m/S 736 mmHg 94%
    22:00 +2°C° 0 mm 2 m/S 736 mmHg 94%
    23:00 +1°C° 0 mm 2 m/S 737 mmHg 94%

    27 Januar, Samstag

    Zeit Temperatur Niederschläge Wind Luftdruck Luftfeuchtigkeit
    00:00 +1°C° 0 mm 2 m/S 737 mmHg 94%
    01:00 +2°C° 0 mm 1 m/S 737 mmHg 94%
    02:00 +2°C° 0 mm 1 m/S 738 mmHg 94%
    03:00 +2°C° 0 mm 1 m/S 738 mmHg 94%
    04:00 +2°C° 0 mm 1 m/S 739 mmHg 94%
    05:00 +2°C° 0 mm 1 m/S 739 mmHg 94%
    06:00 +2°C° 0 mm 1 m/S 740 mmHg 94%
    07:00 +3°C° 0 mm 1 m/S 740 mmHg 92%
    08:00 +3°C° 0 mm 1 m/S 741 mmHg 91%
    09:00 +3°C° 0 mm 1 m/S 741 mmHg 89%
    10:00 +4°C° 0 mm 1 m/S 741 mmHg 83%
    11:00 +5°C° 0 mm 1 m/S 742 mmHg 78%
    12:00 +5°C° 0 mm 2 m/S 742 mmHg 72%
    13:00 +4°C° 0 mm 2 m/S 742 mmHg 73%
    14:00 +4°C° 0 mm 2 m/S 742 mmHg 74%
    15:00 +3°C° 0 mm 3 m/S 741 mmHg 75%
    16:00 +2°C° 0 mm 3 m/S 741 mmHg 80%
    17:00 +1°C° 0 mm 3 m/S 741 mmHg 84%
    18:00 0°C° 0 mm 3 m/S 741 mmHg 89%
    19:00 +1°C° 0 mm 3 m/S 741 mmHg 89%
    20:00 0°C° 0 mm 4 m/S 741 mmHg 89%
    21:00 0°C° 0 mm 4 m/S 741 mmHg 90%
    22:00 0°C° 0,1 mm 4 m/S 741 mmHg 89%
    23:00 0°C° 0,1 mm 5 m/S 741 mmHg 88%

    28 Januar, Sonntag

    Zeit Temperatur Niederschläge Wind Luftdruck Luftfeuchtigkeit
    00:00 0°C° 0,1 mm 5 m/S 741 mmHg 88%
    01:00 0°C° 0,2 mm 5 m/S 741 mmHg 89%
    02:00 +1°C° 0,2 mm 5 m/S 741 mmHg 89%
    03:00 +1°C° 0,2 mm 5 m/S 740 mmHg 90%
    04:00 +1°C° 0,2 mm 5 m/S 741 mmHg 91%
    05:00 +1°C° 0,2 mm 5 m/S 741 mmHg 93%
    06:00 +2°C° 0,2 mm 5 m/S 741 mmHg 94%
    07:00 +2°C° 0,1 mm 5 m/S 741 mmHg 94%
    08:00 +2°C° 0,1 mm 5 m/S 742 mmHg 95%
    09:00 +3°C° 0,1 mm 5 m/S 742 mmHg 95%
    10:00 +3°C° 0,1 mm 5 m/S 742 mmHg 95%
    11:00 +5°C° 0,1 mm 4 m/S 743 mmHg 95%
    12:00 +5°C° 0,1 mm 4 m/S 743 mmHg 94%
    13:00 +6°C° 0,1 mm 4 m/S 743 mmHg 95%
    14:00 +6°C° 0,1 mm 4 m/S 743 mmHg 95%
    15:00 +6°C° 0,1 mm 4 m/S 743 mmHg 95%
    16:00 +6°C° 0 mm 4 m/S 743 mmHg 96%
    17:00 +7°C° 0 mm 3 m/S 743 mmHg 96%
    18:00 +7°C° 0 mm 3 m/S 743 mmHg 97%
    19:00 +7°C° 0 mm 3 m/S 744 mmHg 97%
    20:00 +7°C° 0 mm 3 m/S 744 mmHg 97%
    21:00 +7°C° 0 mm 3 m/S 744 mmHg 97%
    22:00 +7°C° 0 mm 3 m/S 744 mmHg 97%
    23:00 +7°C° 0 mm 3 m/S 744 mmHg 98%
    Mehr zeigen